Regional Weather Roundup
Issued by NWS Sioux Falls, SD

Home | Current Version | Previous Version | Graphics & Text | Print | Product List | Glossary Off
Versions: 1 2 3 4 5 6 7 8 9 10 11 12 13 14 15 16 17 18 19 20 21 22 23 24 25 26 27 28 29 30 31 32 33 34 35 36 37 38 39 40 41 42 43 44 45 46 47 48 49 50

000
ASUS43 KFSD 242210
RWRFSD

WEATHER ROUNDUP FOR SE SOUTH DAKOTA/SW MINNESOTA/NW IOWA
NATIONAL WEATHER SERVICE SIOUX FALLS SD
500 PM CDT FRI OCT 24 2014

NOTE: "FAIR" INDICATES FEW OR NO CLOUDS BELOW 12,000 FEET WITH NO
SIGNIFICANT WEATHER AND OR OBSTRUCTIONS TO VISIBILITY.


SDZ038>040-050-052>070-242300-
SOUTHEAST SOUTH DAKOTA

CITY           SKY/WX    TMP DP  RH WIND       PRES   REMARKS
CHAMBERLAIN    MOSUNNY   76  32  20 SW3       29.93S
HURON          MOSUNNY   80  33  18 NW14      29.89R
MADISON        FAIR      73  37  27 NW10      29.91S
MITCHELL       SUNNY     79  36  21 CALM      29.91R
SIOUX FALLS    PTSUNNY   75  40  28 NW9       29.90R
WINNER         FAIR      80  27  14 SW3       29.94R
YANKTON        SUNNY     72  46  40 SW6       29.91R
$$

MNZ071-072-080-081-089-090-097-098-242300-
SOUTHWEST MINNESOTA

CITY           SKY/WX    TMP DP  RH WIND       PRES   REMARKS
FAIRMONT       MOSUNNY   73  18  12 W9        29.88R
JACKSON        SUNNY     75  34  22 W10       29.89R
LUVERNE        SUNNY     77  32  19 NW8       29.90R
MARSHALL       MOSUNNY   77  37  24 NW16      29.86R
MONTEVIDEO     PTSUNNY   79  43  27 NW3       29.85S
PIPESTONE      SUNNY     73  36  25 NW8       29.91R
REDWOOD FALLS  MOSUNNY   74  43  32 W8        29.85R
TRACY          MOSUNNY   76  38  25 W7        29.88R
WINDOM         SUNNY     73  37  27 W10       29.88R
WORTHINGTON    SUNNY     73  36  25 NW13      29.90R
$$

IAZ001>003-012>014-020>022-031-032-NEZ013-014-SDZ071-242300-
NORTHWEST IOWA

CITY           SKY/WX    TMP DP  RH WIND       PRES   REMARKS
CHEROKEE       SUNNY     72  50  46 W6        29.89S
DENISON        MOSUNNY   75  54  46 W7        29.88R
ESTHERVILLE    SUNNY     75  44  33 W8        29.87R
LE MARS        SUNNY     75  43  31 NW5       29.90R
ORANGE CITY    SUNNY     73  45  35 NW6       29.91R
SHELDON        SUNNY     75  43  31 NW9       29.89R
SIOUX CITY     MOSUNNY   77  46  33 N6        29.90R
SPENCER        SUNNY     74  46  36 NW9       29.89R
STORM LAKE     SUNNY     72  52  49 NW10      29.91R
$$

ABBREVIATIONS USED IN REMARKS
   TC - TEMPERATURE IN CELSIUS
  WCI - WIND CHILL INDEX
   HX - HEAT INDEX
  VSB - VISIBILITY




USA.gov is the U.S. government's official web portal to all federal, state and local government web resources and services.